Location: Bilbao
(43.2500°N, 2.9667°W)
Time: 10:15:14
(UTC+02:00)

ISS - Pass Details

Date: 01 July 2022
Orbit: 412 x 420 km, 51.6° (Epoch: 11 August)

Event Time Altitude Azimuth Distance (km) Brightness Sun altitude
Exits shadow 03:32:19 20° 103° (ESE) 1,067 -1.7 -21.3°
Drops below altitude 10° 03:33:57 10° 79° (E) 1,535 -0.5 -21.2°
Enters shadow 04:30:34 -69° 238° (WSW) 12,333 3.6 -16.8°
Maximum altitude 05:07:57 50° 333° (NNW) 557 -3.0 -12.7°
